Showing default

ZY 3 2, 41556

Orbit data source: Space-Track

ZY 3 2, 41556 is a Chinese payload satellite in SSO that was launched on Mon, 30 May 2016 UTC via a CHANG ZHENG 4B launch vehicle from the Taiyaun Space Center, China (TSC). Payload-class satellites include a variety of spacecraft equipped with specific instruments for various scientific and technological missions. These include communications satellites like Starlink; space stations such as the ISS; scientific satellites like the Hubble; Earth observation satellites from companies like Planet Labs, Umbra, and HawkEye 360; GPS; miniature CubeSats for education and research; and military/defense satellites.

Loading next visibility...
Identifier
41556, 2016-033A
Orbit
SSO
Country
Flag of CNCN / PRC
Related business
Manufacturer
CAST
Mission
Operational Civil Imaging
Bus & Motor
ZY, AOCS 20N
Mass
2,650 kg wet, ~2,600 kg dry
Launch date (UTC)
2016-05-30 (9 years ago)
Launch vehicle
CHANG ZHENG 4B
Launch site
Taiyaun Space Center, China (TSC)
Object type
Payload
Rocket body
Debris
Shape & HBR
Box + 2 Pan, 5.0 m
Radar Cross Section
10.304 m², Large (>1 m²)

Expand to show TLE details & history
Last TLE update: 12 hours ago

TLE from 12 hours ago
0 ZY 3 2
1 41556U 16033A   25309.29567352  .00008625  00000-0  38825-3 0  9992
2 41556  97.4086  24.0759 0012121  27.4182 332.7691 15.21257908523949
Epoch: 2025-11-05T07:05Z
TLE epoch observation values (Epoch: 2025-11-05T07:05:46.192Z)
Latitude
Longitude
-127.13695°
Altitude
497.722 km
Speed
7.62 km/s
True Right ascension
01h 36m 18s
True Declination
0° 00' 00"
Sunlit
Object was in full shadow at epoch
Visualization orbit readout
Latitude
Unknown
Longitude
Unknown
Altitude
Unknown
Speed
Unknown
Apparent Right ascension
Unknown
Apparent Declination
Unknown
Sunlit
N/A
Visualization observer readout
Local Sidereal Time
15:33:48
Azimuth
Unknown
Elevation
Unknown
Doppler factor
Unknown
Orbital elements
Apogee altitude
507.345 km
Perigee altitude
490.674 km
Semi-major axis
6,877.147 km
Eccentricity
0.00121
Inclination
97.4086°
RAAN
24.0759°
Arg. of periapsis
27.4182°
True anomaly
332.70546°
Mean anomaly
332.7691°
Eccentric anomaly
332.73729°
Mean motion
3.80567 °/min
Orbital period
94.6 mins
BSTAR
0.00038825
Loading maneuver chart data...
Computing Atmospheric mass density...
Loading historical data...
Loading historical data...
Loading historical data...
Loading historical data...
Loading historical data...
Loading historical data...
Loading historical data...

Documentation

Showing up to 5 results
|